Temp
11 12 12 12 13 13 13 13 13 13 13 13 13 12 12 11 13 12 13 14 14 14 15 15 15 15 17 22 24 21 22 22 21 23 24 26 25 26 26 27 28 27 27 28 27 26 26
9 9 10 11 12 12 13 12 13 13 13 12 13 12 12 11 11 12 12 13 14 14 15 15 15 15 16 20 24 22 22 22 23 24 25 25 26 26 25 26 26 27 26 27 27 27 26
9 9 9 9 10 11 12 12 12 12 12 12 12 12 12 12 12 11 11 12 14 14 14 15 15 13 18 21 24 24 22 23 23 24 24 25 25 25 26 25 27 25 24 26 27 27 26
9 9 9 9 9 9 9 10 11 11 12 12 12 12 12 12 12 11 11 11 13 14 14 15 15 13 18 22 23 23 23 23 23 23 23 24 23 24 25 26 25 24 25 24 27 26 25
8 8 8 8 9 8 8 8 9 9 10 11 11 12 12 12 12 11 10 12 13 13 13 14 14 16 19 21 22 23 23 24 23 23 22 23 23 23 24 22 23 25 23 25 26 26 25
8 7 7 8 8 8 8 8 8 8 9 10 10 11 11 11 11 10 10 10 12 12 14 14 16 18 21 22 23 23 23 23 23 23 22 22 22 22 23 23 22 25 25 26 25 26 25
7 7 7 7 7 7 7 7 8 8 8 9 10 11 11 11 11 10 9 10 12 14 15 19 21 20 24 23 23 23 23 22 23 22 21 22 21 21 24 25 25 24 24 24 26 26 24
7 7 7 7 7 7 7 7 7 8 8 8 8 9 11 11 11 10 9 10 11 11 14 19 20 21 23 24 22 23 23 22 21 21 22 22 21 23 25 23 23 23 23 24 25 26 23
7 7 7 7 7 7 7 7 7 8 8 8 8 9 9 10 9 8 9 9 10 11 12 15 20 21 22 23 22 23 23 22 22 21 22 22 24 24 23 22 22 23 22 23 23 23 23
7 7 7 7 7 7 7 7 7 7 8 8 8 8 9 9 8 7 7 8 9 10 11 15 18 20 22 23 21 23 23 23 22 22 23 23 24 22 22 22 22 21 23 21 21 21 21
6 6 6 6 7 7 7 7 7 7 7 8 8 8 7 9 8 8 9 9 10 10 13 20 21 23 24 22 22 22 24 22 21 22 22 22 23 21 21 22 23 21 20 20 21 20 21
6 6 6 6 6 6 6 6 7 7 7 8 8 8 7 7 7 7 9 9 10 10 12 17 21 20 20 22 21 23 23 23 23 22 23 22 23 22 21 22 21 21 19 20 21 21 19
5 5 5 5 6 6 6 6 6 7 7 7 7 8 7 7 7 7 7 8 9 12 15 17 19 20 20 20 20 21 21 20 20 18 20 21 21 21 21 20 19 19 18 18 19 19 19
5 5 5 5 5 5 6 6 6 6 7 7 7 7 7 7 7 7 7 8 11 15 15 20 19 20 19 20 19 20 20 20 20 21 21 19 19 20 20 19 20 19 19 19 18 20 22
4 4 4 5 5 5 5 6 6 6 6 7 7 7 7 7 6 6 7 9 11 15 18 17 19 18 19 20 20 20 19 19 21 21 19 20 20 22 20 20 20 20 18 20 17 19 18
4 4 4 4 4 5 5 5 6 6 6 7 6 7 8 6 6 6 7 9 10 15 18 17 15 18 18 19 19 20 19 20 20 21 21 20 19 19 19 19 19 19 20 17 18 16 18
4 4 4 4 4 4 5 5 5 6 6 7 6 6 8 7 5 6 8 9 11 14 17 16 16 17 18 20 20 19 19 20 21 21 21 20 18 18 18 16 17 16 16 17 18 19 17
3 3 3 3 4 4 4 4 4 5 6 6 7 6 6 5 6 5 7 10 13 15 16 16 17 17 16 18 19 19 18 19 20 21 19 18 17 17 17 18 19 19 17 17 15 17 17
3 3 3 3 3 4 4 4 4 4 5 5 6 6 5 6 6 7 10 11 13 14 15 14 14 16 17 17 16 16 19 20 19 19 17 17 15 14 16 16 16 16 18 18 18 16 15
3 3 3 3 3 3 4 4 4 4 5 5 5 5 4 5 10 10 10 11 12 14 14 15 15 17 16 16 16 14 16 18 18 18 14 16 15 14 16 16 16 14 16 18 16 14 15
3 3 3 2 3 3 3 4 4 4 4 5 5 5 7 5 6 10 12 12 12 12 14 15 14 15 15 14 15 14 16 15 15 13 13 14 12 13 16 18 17 16 16 17 14 15 13
3 3 3 2 3 3 3 3 4 4 5 5 5 6 9 10 10 8 11 12 13 13 14 13 14 15 16 15 15 14 15 13 13 13 14 14 13 15 14 16 17 16 17 16 16 16 15
3 2 2 2 3 3 3 4 4 4 4 5 6 7 10 11 11 8 9 12 13 15 15 15 15 15 16 17 17 17 15 15 14 12 10 11 12 13 13 15 16 14 15 14 10 15 15
2 2 2 2 2 3 3 3 3 3 4 4 5 7 8 8 11 10 11 12 14 14 14 15 16 15 17 18 16 15 15 13 13 13 13 12 13 13 13 14 12 15 17 17 16 14 14
1 2 3 3 3 2 2 2 2 2 3 3 4 6 9 9 11 12 12 12 12 14 14 14 16 17 16 13 12 11 11 11 11 13 13 14 13 13 12 13 14 14 15 15 15 14 14
3 3 3 3 2 1 1 1 2 2 2 3 3 5 8 9 11 13 13 12 12 13 13 13 11 16 15 14 11 10 9 11 11 12 14 14 13 12 12 11 10 15 16 15 15 12 14
3 3 2 2 1 2 2 2 2 3 3 3 3 5 8 9 12 13 12 12 14 13 11 10 10 12 14 12 11 9 9 12 11 11 11 11 11 11 11 12 14 14 14 14 11 11 11
3 2 2 2 2 2 2 2 5 7 7 4 4 5 8 9 12 13 15 13 13 13 9 8 11 9 9 8 9 10 11 12 11 12 11 10 10 10 11 11 12 14 13 12 11 11 9
2 2 2 2 3 3 2 3 5 6 6 7 6 7 9 8 5 7 9 12 15 14 13 11 11 9 9 10 11 12 12 11 11 10 12 10 11 11 13 13 13 13 13 12 13 11 10
Height
806 807 806 807 807 808 810 812 813 814 814 815 815 816 817 818 817 818 817 816 816 812 807 806 805 803 798 790 781 781 782 783 784 785 781 776 775 773 774 764 759 768 767 760 765 770 770
803 802 804 805 804 804 805 807 809 810 810 811 812 813 813 815 815 816 816 814 813 812 808 804 805 803 801 794 778 780 781 782 783 783 780 777 774 770 774 770 768 763 767 765 764 765 767
800 799 800 802 802 801 800 802 805 805 806 808 809 811 811 811 812 814 815 812 811 810 808 804 804 805 800 786 779 778 780 781 780 782 781 777 777 776 769 774 764 771 778 768 762 763 769
795 796 797 797 798 801 799 797 800 801 802 803 806 805 808 809 810 809 810 810 809 807 807 806 801 807 795 779 775 778 778 779 781 780 782 781 779 777 772 768 772 779 774 781 750 758 769
794 793 792 795 797 797 798 797 794 797 798 799 799 803 802 805 806 807 806 805 806 806 806 805 802 802 788 778 775 775 777 777 777 781 781 781 781 776 772 782 782 773 783 767 764 758 765
792 792 792 792 790 796 795 795 796 792 794 796 794 796 800 801 803 804 804 803 803 801 804 804 800 801 779 772 770 771 775 776 776 777 781 781 781 780 774 778 789 770 769 760 764 758 763
789 789 791 790 791 790 792 794 791 794 790 793 791 793 794 799 799 801 805 805 802 799 798 787 777 776 767 769 769 771 771 774 775 775 785 776 783 782 769 758 758 768 769 767 758 753 768
782 783 785 787 788 786 792 789 791 790 789 789 790 789 788 793 796 798 802 802 800 806 795 780 776 773 767 768 771 770 772 774 777 780 776 776 780 765 757 763 767 768 773 770 758 755 767
778 779 779 783 782 785 784 790 786 787 789 787 787 788 786 789 793 797 799 798 801 802 801 782 767 762 763 765 767 761 767 770 770 776 771 774 762 752 763 769 775 772 775 769 772 767 765
773 774 773 776 779 779 783 785 784 784 784 787 786 786 786 786 795 793 797 797 800 804 804 775 760 746 750 756 761 759 755 764 767 768 762 760 755 766 768 771 768 777 765 772 778 780 779
767 768 770 770 772 775 777 779 780 780 781 782 785 786 785 787 784 789 792 795 802 803 799 746 742 732 733 746 745 751 750 757 763 762 762 761 760 771 771 768 763 774 775 778 777 780 775
762 763 764 765 767 768 772 773 776 776 778 779 781 783 784 787 786 786 787 795 800 813 783 751 733 741 744 739 749 741 748 750 754 762 756 754 750 760 765 762 770 771 781 776 772 774 781
756 757 758 759 761 762 766 768 769 773 772 777 778 779 781 782 783 786 790 792 801 784 763 752 736 737 740 739 749 747 753 754 759 776 768 759 757 760 762 773 776 783 786 785 778 778 773
748 749 753 753 754 756 758 762 764 766 769 771 774 776 775 777 780 783 788 791 775 752 753 729 736 731 738 736 745 745 753 753 750 750 756 765 771 761 763 769 769 774 777 777 780 763 751
741 742 743 745 748 750 751 756 757 760 764 766 768 771 772 771 776 781 785 775 760 746 735 742 738 736 738 734 734 741 749 754 743 743 758 752 752 741 755 767 766 764 781 766 780 769 774
733 735 736 738 738 743 745 747 750 754 757 760 763 764 763 766 771 779 776 761 758 737 734 734 744 732 739 734 735 735 745 736 738 739 739 746 755 753 765 768 768 767 762 783 779 786 774
724 726 727 728 731 735 737 740 744 747 751 755 760 759 752 761 772 770 758 758 748 739 730 734 735 732 730 723 722 730 735 731 727 731 738 745 754 761 765 778 769 776 773 772 769 763 771
715 716 717 720 722 724 727 731 736 741 745 750 751 749 749 752 761 763 753 742 738 731 730 732 730 731 736 725 722 725 730 730 729 725 741 749 757 758 764 761 760 755 767 768 779 770 766
704 705 707 709 710 713 716 721 726 732 737 743 739 742 744 747 742 747 741 736 731 731 729 734 732 728 729 730 736 738 723 724 735 737 743 750 763 772 765 767 767 765 755 760 763 770 778
694 695 695 696 698 701 704 709 714 721 727 735 734 731 735 734 728 729 731 728 728 725 725 724 724 723 727 728 733 742 733 734 740 742 750 751 760 764 760 755 753 767 759 752 761 776 770
682 683 683 684 685 687 690 695 701 706 713 724 721 715 713 718 726 715 714 713 721 724 722 722 725 719 723 732 731 735 730 744 750 754 760 757 763 764 751 748 748 755 757 755 765 765 776
671 671 670 670 671 672 675 678 684 691 700 706 706 705 702 690 701 713 704 702 702 710 715 715 715 713 711 718 720 724 729 737 747 759 761 756 760 754 759 752 751 752 752 754 752 754 760
659 658 656 655 655 654 654 659 666 674 685 684 692 696 688 683 684 704 695 691 690 696 698 700 706 713 708 704 708 715 724 732 735 752 765 765 764 759 760 753 753 758 758 759 773 753 760
646 642 640 638 636 635 638 645 651 659 662 670 676 687 686 679 670 673 687 689 684 686 690 698 698 705 703 702 710 723 729 737 746 750 751 759 761 756 757 752 764 748 741 744 748 754 758
628 623 621 622 624 627 631 634 639 644 651 656 665 665 664 663 664 672 673 678 689 688 688 695 693 695 705 720 735 743 749 750 749 744 748 745 753 756 761 755 749 747 746 746 741 749 756
615 615 617 618 619 617 616 616 616 620 627 637 645 657 660 663 644 655 666 676 681 681 689 692 701 691 701 712 730 735 741 733 742 738 735 742 748 757 760 764 768 738 735 741 742 756 755
615 614 614 613 610 605 600 595 585 568 574 601 619 641 659 648 652 655 651 657 667 674 690 700 708 703 703 713 725 738 736 724 734 735 739 748 754 759 761 756 741 740 748 747 758 769 770
614 614 612 608 602 594 588 577 555 521 516 563 598 625 637 644 643 646 644 654 661 668 686 698 702 718 722 728 726 723 718 717 726 730 739 749 759 760 755 757 748 743 751 754 766 766 776
615 612 610 604 597 589 584 574 563 556 557 573 597 622 642 651 660 655 652 648 651 662 668 685 686 702 710 714 715 710 711 715 722 733 730 748 740 742 742 741 741 746 750 759 761 769 775
Wind_Speed
18 18 14 12 17 22 23 22 22 20 20 19 18 18 18 17 16 17 14 13 15 13 12 13 16 17 9 7 9 7 3 2 5 10 11 9 8 11 13 12 9 7 12 3 6 3 6
9 9 14 18 15 14 18 23 24 23 22 21 20 20 19 19 18 17 16 14 14 16 14 12 15 15 8 13 1 7 4 4 7 8 11 7 7 8 9 13 8 10 8 10 10 10 3
11 11 11 12 11 16 16 15 22 26 24 21 21 21 22 20 19 18 17 16 15 16 16 12 13 11 11 17 6 6 6 8 8 7 11 9 7 7 6 8 7 8 13 14 17 13 5
9 10 11 11 12 14 12 12 15 18 22 26 26 23 24 22 21 19 15 17 16 16 15 14 8 8 8 11 8 13 10 9 6 6 8 9 6 10 9 9 7 12 14 13 10 14 7
13 13 11 12 14 14 16 17 14 14 14 18 23 26 24 23 22 20 16 16 16 17 15 11 6 8 10 3 11 15 13 12 7 6 7 5 8 10 6 8 10 13 12 14 9 12 7
15 14 13 13 13 15 16 16 18 16 16 18 16 20 23 22 20 20 17 16 15 15 12 11 12 9 17 10 8 13 11 11 6 7 7 8 7 8 8 10 11 9 17 11 3 9 9
18 17 16 15 15 15 17 16 14 19 17 17 17 15 18 22 21 19 14 8 4 4 11 11 9 7 3 14 5 11 14 10 11 7 12 13 9 12 15 15 11 4 9 11 8 2 2
21 21 18 16 16 14 16 14 15 14 14 13 14 13 14 18 24 20 10 3 4 4 7 17 23 24 23 10 10 13 14 11 12 14 15 13 12 16 8 2 3 7 11 13 13 6 3
21 21 21 20 17 16 15 16 15 14 14 12 13 13 11 16 21 15 13 5 6 1 3 10 18 21 21 22 19 15 17 17 14 14 17 17 7 2 8 6 7 11 14 13 8 12 13
21 22 22 22 21 20 19 18 18 16 13 13 11 10 9 14 14 10 5 14 11 5 2 7 9 14 26 18 22 28 25 17 15 17 16 15 17 8 7 10 9 12 7 3 6 8 9
24 25 25 24 24 24 22 21 18 17 15 11 10 8 7 14 9 8 7 14 14 4 5 3 9 4 13 27 4 20 30 19 21 18 13 14 10 8 13 14 11 5 2 6 10 12 15
26 24 23 23 23 23 24 24 21 17 16 13 10 9 7 19 8 8 16 24 11 2 9 7 6 10 15 24 20 7 23 18 15 18 19 16 6 10 14 7 4 5 7 12 14 13 11
26 26 25 25 26 25 24 23 21 19 16 15 13 12 15 17 5 20 28 12 2 8 3 9 9 12 17 20 24 15 23 21 15 15 20 15 15 9 4 7 5 8 9 4 7 8 8
29 28 27 24 22 22 21 23 23 21 19 17 16 15 19 18 13 31 14 2 12 14 19 2 11 15 18 22 23 21 21 20 24 19 11 14 11 18 13 16 12 14 15 7 5 8 6
26 27 28 29 27 27 25 24 21 22 21 18 16 18 15 23 23 32 5 8 6 19 17 11 13 14 19 22 12 21 21 19 20 21 13 14 14 17 14 15 8 8 6 5 3 11 5
28 29 30 29 30 29 25 22 24 22 23 20 20 14 21 22 32 20 7 12 5 19 22 14 13 16 20 23 22 20 16 14 22 23 17 6 5 15 8 3 12 8 4 3 4 4 10
30 31 31 29 31 31 31 29 25 24 23 23 20 4 9 26 31 7 9 11 13 19 22 16 19 16 21 19 23 16 13 10 19 19 19 8 5 12 12 11 13 9 8 5 5 7 4
33 33 34 32 33 33 32 30 27 26 26 24 14 7 23 38 9 3 10 17 23 15 20 19 14 21 19 17 17 20 19 13 6 16 17 7 3 7 18 13 18 14 13 14 3 6 7
35 35 36 37 36 36 35 35 33 32 28 24 5 8 28 25 10 9 15 25 24 20 18 19 16 20 18 17 11 17 17 12 1 4 8 8 4 4 11 8 9 8 15 16 13 4 9
35 36 38 40 40 40 39 39 37 35 35 35 4 7 5 8 13 21 23 23 26 24 26 24 23 19 21 19 12 9 13 6 5 12 10 7 3 8 10 6 9 11 17 16 13 7 7
38 35 36 36 40 40 41 42 41 40 41 42 9 6 7 7 15 24 26 20 27 25 24 19 22 25 19 18 19 23 17 9 4 4 0 4 4 9 9 8 7 11 15 19 12 14 6
32 37 39 43 40 43 46 44 44 41 45 33 10 7 11 13 25 24 23 27 28 27 24 30 26 28 24 22 22 19 21 14 11 10 14 3 3 11 9 11 10 10 12 13 15 17 18
37 40 43 43 41 50 49 46 45 50 51 17 24 22 11 16 20 18 24 30 32 26 25 25 27 22 21 25 19 14 17 13 10 10 5 4 3 5 6 11 12 15 10 12 4 10 10
40 44 47 50 41 31 27 32 33 42 58 29 17 18 13 15 20 23 31 32 30 30 25 22 20 22 20 11 8 10 12 13 9 15 11 9 12 4 4 5 15 10 5 14 18 11 11
52 41 26 22 19 24 30 37 42 48 54 35 30 14 16 22 19 27 30 29 27 24 24 23 24 23 11 17 12 9 5 6 15 17 16 13 7 5 6 10 7 4 7 9 9 12 12
15 9 12 13 15 21 29 38 49 56 63 62 47 45 10 16 26 25 22 25 19 21 18 23 7 16 20 12 7 9 8 9 10 11 16 14 7 4 6 10 8 4 12 4 7 5 11
7 6 9 12 19 19 24 29 47 71 87 72 51 59 22 17 16 23 20 24 25 20 10 13 13 9 12 9 8 4 5 14 9 15 17 9 6 11 11 8 4 10 8 7 5 5 13
2 4 6 11 13 25 16 23 17 13 44 82 50 60 37 16 10 24 22 21 21 18 10 13 11 4 6 6 6 5 5 10 7 12 14 9 9 9 9 9 12 15 8 2 8 11 11
2 1 2 11 17 6 6 8 27 27 40 47 26 53 43 5 1 4 7 16 28 23 11 18 4 14 6 6 5 4 6 6 9 8 14 8 7 6 8 4 11 11 13 10 7 11 8
Wind_Direction
265 264 262 265 258 262 267 270 270 272 275 276 278 280 282 284 296 303 315 318 313 310 313 319 323 327 334 244 259 150 173 299 287 270 277 292 281 277 265 274 272 262 263 237 281 276 264
293 294 278 263 262 259 261 268 272 273 271 273 275 276 278 276 284 291 306 311 308 303 305 314 321 326 278 269 184 168 190 207 264 269 274 266 282 340 305 289 285 304 311 294 255 243 222
283 284 291 296 294 269 264 270 262 270 274 274 278 276 272 276 277 281 293 302 298 298 301 308 321 323 279 257 249 215 216 239 258 269 290 271 287 275 323 269 276 284 275 265 245 234 217
274 274 282 282 289 294 295 277 275 266 267 271 271 273 277 272 277 278 278 291 293 291 295 303 312 303 262 285 245 239 247 238 249 254 266 299 281 276 277 298 262 259 255 262 284 151 134
283 276 272 277 280 279 289 295 288 287 278 266 271 273 277 278 277 272 269 278 285 292 292 293 292 209 268 222 233 244 235 240 207 250 254 274 263 245 211 244 262 230 251 239 176 162 153
280 281 285 286 277 287 285 284 288 287 287 276 280 269 273 276 279 268 270 272 272 288 282 253 253 286 239 243 227 218 208 244 204 227 234 229 233 234 213 233 242 275 209 233 250 174 191
270 271 279 276 276 277 280 289 295 283 289 285 273 278 265 274 276 270 250 278 326 223 221 229 199 228 314 217 171 207 193 197 218 220 233 200 217 233 241 222 238 318 290 293 276 97 344
263 262 267 272 276 278 283 281 296 292 297 293 290 282 274 268 265 263 220 242 134 30 296 243 250 262 258 253 224 226 195 199 202 223 224 241 233 250 265 88 265 269 275 272 271 293 319
267 266 263 262 266 274 274 276 285 290 290 290 278 290 294 255 228 202 197 178 186 269 280 281 251 249 240 234 234 223 196 213 207 228 238 235 219 87 196 196 258 256 256 262 307 322 285
268 268 265 265 262 267 270 270 273 282 288 289 284 288 287 218 191 179 206 207 216 140 285 264 222 244 230 218 248 241 189 211 230 236 239 238 246 194 218 239 220 260 350 94 271 283 275
269 271 271 267 266 267 268 272 276 277 275 285 275 273 207 214 165 177 167 174 148 84 258 201 222 237 193 202 289 208 217 200 232 225 231 229 212 212 237 240 218 279 334 274 277 275 278
266 268 271 271 269 267 267 267 267 270 272 269 258 240 224 216 216 178 160 149 130 201 227 250 162 192 206 208 212 258 209 196 221 246 231 245 232 204 244 225 179 311 281 261 251 251 262
266 263 263 267 270 269 267 266 260 262 262 261 251 242 216 212 200 162 151 138 144 216 25 228 205 197 210 195 205 218 203 194 200 216 231 215 218 230 236 196 190 235 257 263 213 226 241
266 265 262 263 263 264 264 262 259 257 256 252 247 239 220 215 214 162 170 153 224 205 214 358 239 198 206 185 209 207 207 209 209 215 215 214 208 205 181 218 202 209 229 248 285 255 271
265 264 265 263 261 263 260 263 258 253 251 251 236 238 223 213 185 167 171 219 214 220 219 218 226 216 214 210 195 208 214 226 212 214 227 206 224 178 167 215 223 184 229 304 297 268 279
262 263 263 260 259 261 254 254 260 253 244 243 232 234 225 204 184 182 218 228 245 240 231 217 222 210 213 211 202 195 200 227 221 213 229 264 208 150 170 183 229 239 174 189 213 245 247
261 260 259 258 258 258 259 254 250 253 244 240 227 225 213 193 170 184 220 217 225 247 239 226 218 224 239 218 202 205 206 215 214 219 209 223 275 174 159 212 205 199 223 223 278 262 257
259 258 257 255 256 255 253 250 244 248 247 228 223 228 172 157 187 208 209 211 220 235 236 241 244 219 232 255 229 210 212 224 286 222 191 192 345 228 195 233 231 206 209 212 216 228 215
259 259 258 256 255 251 250 245 242 233 235 217 216 203 171 170 201 210 223 225 228 230 229 223 227 211 218 228 244 265 218 214 232 178 171 171 216 228 195 190 259 239 219 213 226 246 253
261 261 262 260 256 251 248 244 239 233 236 213 190 198 205 193 210 210 218 220 224 225 241 232 231 223 225 222 206 226 249 222 255 211 93 183 266 258 226 243 162 202 230 218 209 218 241
265 265 260 266 262 252 254 247 239 240 230 203 207 214 205 174 195 209 214 219 220 231 228 235 232 222 221 223 211 207 205 177 247 113 356 210 224 266 258 272 192 198 216 219 210 198 229
269 270 265 268 262 256 254 246 238 238 207 202 206 200 204 203 203 207 215 216 222 218 223 220 225 214 224 207 205 202 199 177 174 177 212 219 250 222 225 250 256 258 225 225 220 217 228
277 275 271 267 264 269 254 239 231 203 197 204 206 226 244 216 203 192 215 217 218 223 217 232 223 232 226 212 205 237 190 163 145 161 167 154 232 186 223 221 242 245 229 227 223 227 238
280 280 273 271 259 238 209 213 216 215 198 199 196 200 211 229 209 204 208 219 221 215 222 217 231 215 230 215 117 117 126 143 176 206 184 190 218 200 252 202 238 254 215 234 231 202 225
289 277 259 237 232 235 236 228 223 220 214 205 201 202 206 217 216 210 210 211 224 229 229 210 219 216 141 120 137 119 128 176 229 199 202 207 211 210 219 230 243 191 206 232 223 188 207
264 225 239 235 249 253 252 248 243 232 221 210 209 208 220 208 219 217 209 209 212 219 207 217 324 197 159 158 145 180 178 170 183 188 198 196 202 205 209 234 236 275 135 97 69 200 104
221 239 266 261 283 273 273 259 251 243 225 210 200 201 203 219 216 218 206 200 205 208 181 171 165 146 162 160 179 170 188 178 178 179 177 179 181 214 223 239 216 125 123 153 180 118 94
216 282 276 275 278 289 281 265 8 83 197 182 185 190 195 207 221 233 189 197 207 186 168 162 137 157 164 175 188 177 184 179 156 175 178 164 180 206 218 232 234 134 145 210 110 112 118
86 87 238 299 315 287 290 275 74 96 110 139 144 180 186 146 107 26 31 217 189 186 156 174 133 149 157 155 195 198 174 165 152 177 169 195 200 182 207 219 111 134 100 109 118 128 115